Starlink 6108

operational
NORAD ID: 57155 Int'l Des: 2023-090 Owner: SPXS Country: US Constellation: starlink
LEOCIRCULAR

Über Starlink 6108

Beschreibung wird geladen...

Live-Position

3D-Globus wird geladen...

Nächste Überflüge

Höhenverlauf

Altitude vs Time

uPlot chart will show altitude changes over time

Zweizeiliger Elementsatz

1 57155U 23090BG 25303.83668404 .00005351 00000-0 41115-3 0 9998
2 57155 43.0063 246.9074 0001115 264.4384 95.6332 15.02509287131037
Epoch: 30. Okt. 2025 • Age: 13 hours

Aktueller Status

Höhe 565.3 km
Geschwindigkeit 7.58 km/s
Subsatellitenpunkt -26.20°S, 42.51°E
Startdatum 23. Juni 2023
Alter 2.3 years
Typ internet

Technische Details

Klassifizierung Payload
Masse 305.00 kg
Trockenmasse 290.00 kg
Gesamtmasse 305.00 kg
Länge 0.20 m
Durchmesser 2.80 m
Spannweite 9.00 m
Form Box + pan
Hersteller SPXS
Bus-Typ Starlink
Phasenstatus In Orbit
Besitzer/Staat SPXS/US

Große Konstellationen

Loading constellations...